Latest Coastal Weather Observations for Willis Island

IDQ60701

Issued at 8:55 pm EST Sunday 23 November 2014 (issued every 10 minutes, with the page automatically refreshed every 10 minutes)

About coastal observations | Map of coastal stations | Coastal observations for QLD | Marine services | Other Formats
Station Details ID: 200283 Name: WILLIS ISLAND Lat: -16.29 Lon: 149.97 Height: 9.29 m
Data from the previous 72 hours. | See also: Recent months at Willis Island
Date/Time
EST
Temp

°C
Wind Pressure Rain
since 9am
mm
Weather Cloud Vis
km
Sea
Height
m
Swell
Dir
 
Speed
knots
Gust
knots
hPa Trend Height
m
Period
s
Dir
23/08:30pm 26.9 E 16 18 1013.2 - 0.0 - - - - - - -
23/08:00pm 26.9 E 16 18 1013.0 - 0.0 - - - - - - -
23/07:30pm 27.0 E 14 16 1012.8 - 0.0 - - - - - - -
23/07:00pm 26.8 E 15 17 1012.6 - 0.0 - - - - - - -
23/06:30pm 27.1 E 15 17 1012.3 - 0.0 - - - - - - -
23/06:00pm 27.0 E 13 15 1012.1 F 0.0 Distant precip. Mostly clear 30 1 1.0 7 SE
23/05:30pm 27.8 ESE 13 16 1012.0 - 0.0 - - - - - - -
23/05:00pm 28.1 ESE 12 14 1011.9 - 0.0 - - - - - - -
23/04:30pm 28.6 ESE 12 14 1011.8 - 0.0 - - - - - - -
23/04:00pm 28.7 ESE 13 15 1011.6 - 0.0 - - - - - - -
23/03:30pm 29.1 ESE 12 15 1011.6 - 0.0 - - - - - - -
23/03:00pm 28.9 ESE 12 14 1011.8 S 0.0 Fine Mostly clear 30 1 1.0 5 SE
23/02:30pm 29.3 E 12 14 1012.0 - 0.0 - - - - - - -
23/02:00pm 29.6 ESE 11 13 1012.2 - 0.0 - - - - - - -
23/01:30pm 29.1 ESE 11 13 1012.5 - 0.0 - - - - - - -
23/01:00pm 29.8 ESE 11 13 1012.9 - 0.0 - - - - - - -
23/12:30pm 30.7 E 10 13 1013.1 - 0.0 - - - - - - -
23/12:00pm 29.8 E 9 11 1013.3 R 0.0 Fine Partly cloudy 30 1 1.2 6 SE
23/11:30am 30.4 ESE 11 13 1013.6 - 0.0 - - - - - - -
23/11:00am 29.5 E 12 14 1013.8 - 0.0 - - - - - - -
23/10:30am 30.2 ESE 12 14 1014.0 - 0.0 - - - - - - -
23/10:00am 30.3 E 11 13 1014.2 - 0.0 - - - - - - -
23/09:30am 29.2 E 12 14 1014.2 - 0.0 - - - - - - -
23/09:00am 29.0 E 15 16 1014.2 R 0.0 Fine Mostly clear 30 1 1.2 8 SE
23/08:30am 27.8 E 13 15 1014.2 - 0.0 - - - - - - -
23/08:00am 28.3 E 13 15 1013.9 - 0.0 - - - - - - -
23/07:30am 28.1 E 14 16 1013.6 - 0.0 - - - - - - -
23/07:00am 27.0 ESE 13 15 1013.3 - 0.0 - - - - - - -
23/06:30am 27.0 E 14 15 1013.1 - 0.0 - - - - - - -
23/06:00am 26.6 ESE 14 17 1012.7 - 0.0 - - - - - - -
23/05:30am 26.5 E 14 16 1012.5 - 0.0 - - - - - - -
23/05:00am 26.3 ESE 13 15 1012.0 - 0.0 - - - - - - -
23/04:30am 26.3 ESE 15 18 1011.8 - 0.0 - - - - - - -
23/04:00am 26.2 E 13 15 1011.5 - 0.0 - - - - - - -
23/03:30am 26.2 ESE 15 16 1011.3 - 0.0 - - - - - - -
23/03:00am 26.2 E 16 17 1011.2 - 0.0 - - - - - - -
23/02:30am 26.4 E 16 19 1011.4 - 0.0 - - - - - - -
23/02:00am 26.3 ESE 15 17 1011.6 - 0.0 - - - - - - -
23/01:30am 26.3 E 15 16 1011.7 - 0.0 - - - - - - -
23/01:00am 26.3 E 15 18 1012.0 - 0.0 - - - - - - -
23/12:30am 26.4 E 15 17 1012.4 - 0.0 - - - - - - -
23/12:00am 26.5 E 16 19 1012.9 - 0.0 - - - - - - -
 
Date/Time
EST
Temp

°C
Wind Pressure Rain
since 9am
mm
Weather Cloud Vis
km
Sea
Height
m
Swell
Dir
 
Speed
knots
Gust
knots
hPa Trend Height
m
Period
s
Dir
22/11:30pm 26.5 E 15 18 1013.3 - 0.0 - - - - - - -
22/11:00pm 26.6 E 16 17 1013.5 - 0.0 - - - - - - -
22/10:30pm 26.6 E 15 17 1013.8 - 0.0 - - - - - - -
22/10:00pm 26.6 E 16 18 1013.8 - 0.0 - - - - - - -
22/09:30pm 26.7 ESE 15 17 1013.5 - 0.0 - - - - - - -
22/09:00pm 26.7 E 15 17 1013.3 - 0.0 - - - - - - -
22/08:30pm 26.8 ESE 15 18 1013.2 - 0.0 - - - - - - -
22/08:00pm 26.7 ESE 14 16 1012.9 - 0.0 - - - - - - -
22/07:30pm 26.8 ESE 15 17 1012.9 - 0.0 - - - - - - -
22/07:00pm 26.8 ESE 14 16 1012.5 - 0.0 - - - - - - -
22/06:30pm 27.0 ESE 14 16 1012.2 - 0.0 - - - - - - -
22/06:00pm 27.1 SE 13 15 1011.9 F 0.0 Fine Mostly clear 30 1 0.5 7 E
22/05:30pm 27.5 ESE 13 14 1011.7 - 0.0 - - - - - - -
22/05:00pm 28.1 ESE 12 14 1011.6 - 0.0 - - - - - - -
22/04:30pm 28.5 ESE 11 13 1011.6 - 0.0 - - - - - - -
22/04:00pm 29.2 SE 11 13 1011.5 - 0.0 - - - - - - -
22/03:30pm 29.0 ESE 13 15 1011.6 - 0.0 - - - - - - -
22/03:00pm 29.9 ESE 14 16 1011.6 R 0.0 Fine Partly cloudy 40 1 0.5 6 E
22/02:30pm 29.6 ESE 13 16 1011.7 - 0.0 - - - - - - -
22/02:00pm 30.0 ESE 13 15 1011.8 - 0.0 - - - - - - -
22/01:30pm 30.2 ESE 12 13 1012.0 - 0.0 - - - - - - -
22/01:00pm 29.9 ESE 11 14 1012.3 - 0.0 - - - - - - -
22/12:30pm 29.9 E 11 12 1012.5 - 0.0 - - - - - - -
22/12:00pm 29.4 E 11 13 1012.7 F 0.0 Fine Mostly clear 40 1 0.8 7 E
22/11:30am 29.6 E 11 13 1013.0 - 0.0 - - - - - - -
22/11:00am 28.8 E 12 14 1013.4 - 0.0 - - - - - - -
22/10:30am 29.1 E 12 14 1013.7 - 0.0 - - - - - - -
22/10:00am 29.0 E 12 13 1013.8 - 0.0 - - - - - - -
22/09:30am 28.7 E 12 14 1014.1 - 0.0 - - - - - - -
22/09:00am 28.8 E 11 12 1014.2 S 0.0 Fine Mostly clear 30 1 0.7 8 E
22/08:30am 28.7 E 11 11 1014.2 - 0.0 - - - - - - -
22/08:00am 28.0 E 11 13 1014.0 - 0.0 - - - - - - -
22/07:30am 27.5 E 12 14 1013.8 - 0.0 - - - - - - -
22/07:00am 27.1 E 11 13 1013.5 - 0.0 - - - - - - -
22/06:30am 26.9 E 10 11 1013.2 - 0.0 - - - - - - -
22/06:00am 26.3 E 11 14 1012.8 - 0.0 - - - - - - -
22/05:30am 26.0 E 12 14 1012.4 - 0.0 - - - - - - -
22/05:00am 25.9 E 13 15 1012.0 - 0.0 - - - - - - -
22/04:30am 26.0 E 14 16 1011.7 - 0.0 - - - - - - -
22/04:00am 25.8 E 15 17 1011.4 - 0.0 - - - - - - -
22/03:30am 25.9 E 16 18 1011.1 - 0.0 - - - - - - -
22/03:00am 25.8 E 14 16 1011.4 - 0.0 - - - - - - -
22/02:30am 25.9 E 15 16 1011.2 - 0.0 - - - - - - -
22/02:00am 25.8 E 16 18 1011.0 - 0.0 - - - - - - -
22/01:30am 25.8 E 16 19 1011.3 - 0.0 - - - - - - -
22/01:00am 26.0 E 16 18 1011.8 - 0.0 - - - - - - -
22/12:30am 26.0 E 15 18 1012.2 - 0.0 - - - - - - -
22/12:00am 26.1 E 17 19 1012.6 - 0.0 - - - - - - -
 
Date/Time
EST
Temp

°C
Wind Pressure Rain
since 9am
mm
Weather Cloud Vis
km
Sea
Height
m
Swell
Dir
 
Speed
knots
Gust
knots
hPa Trend Height
m
Period
s
Dir
21/11:30pm 26.2 E 18 20 1012.9 - 0.0 - - - - - - -
21/11:00pm 26.3 E 18 20 1013.2 - 0.0 - - - - - - -
21/10:30pm 26.3 E 18 21 1013.3 - 0.0 - - - - - - -
21/10:00pm 26.5 E 14 19 1013.6 - 0.0 - - - - - - -
21/09:30pm 26.5 E 14 16 1013.7 - 0.0 - - - - - - -
21/09:00pm 26.4 E 14 16 1013.4 - 0.0 - - - - - - -
21/08:30pm 26.5 E 15 16 1013.2 - 0.0 - - - - - - -
21/08:00pm 26.5 E 15 17 1013.1 - 0.0 - - - - - - -
21/07:30pm 26.5 E 15 16 1012.8 - 0.0 - - - - - - -
21/07:00pm 26.5 ESE 15 16 1012.7 - 0.0 - - - - - - -
21/06:30pm 26.6 E 14 16 1012.2 - 0.0 - - - - - - -
21/06:00pm 26.8 E 12 14 1012.1 F 0.0 Fine Mostly clear 30 1 0.5 5 E
21/05:30pm 27.1 ESE 11 14 1012.0 - 0.0 - - - - - - -
21/05:00pm 27.6 ESE 12 13 1011.9 - 0.0 - - - - - - -
21/04:30pm 28.0 ESE 11 12 1011.8 - 0.0 - - - - - - -
21/04:00pm 27.8 ESE 11 13 1011.7 - 0.0 - - - - - - -
21/03:30pm 29.6 SE 10 12 1011.7 - 0.0 - - - - - - -
21/03:00pm 29.6 SE 10 11 1011.9 R 0.0 Fine Partly cloudy 30 1 0.5 5 E
21/02:30pm 29.5 ESE 9 10 1011.9 - 0.0 - - - - - - -
21/02:00pm 28.2 ESE 8 9 1012.1 - 0.0 - - - - - - -
21/01:30pm 29.3 ESE 8 10 1012.6 - 0.0 - - - - - - -
21/01:00pm 29.0 E 9 10 1012.8 - 0.0 - - - - - - -
21/12:30pm 30.0 E 10 12 1013.1 - 0.0 - - - - - - -
21/12:00pm 29.5 E 12 13 1013.3 R 0.0 Fine Mostly clear 30 <0.5 0.5 8 E
21/11:30am 29.0 E 12 14 1013.3 - 0.0 - - - - - - -
21/11:00am 29.0 E 13 15 1013.5 - 0.0 - - - - - - -
21/10:30am 29.0 E 13 15 1013.6 - 0.0 - - - - - - -
21/10:00am 28.7 E 13 15 1014.0 - 0.0 - - - - - - -
21/09:30am 28.6 E 13 15 1014.1 - 0.0 - - - - - - -
21/09:00am 28.8 E 9 11 1014.3 S 0.0 Fine Partly cloudy 30 <0.5 0.5 7 E
21/08:30am 27.9 E 10 11 1014.2 - 0.0 - - - - - - -
21/08:00am 28.0 E 10 12 1014.1 - 0.0 - - - - - - -
21/07:30am 27.4 E 11 12 1014.0 - 0.0 - - - - - - -
21/07:00am 27.1 E 12 14 1013.7 - 0.0 - - - - - - -
21/06:30am 26.6 E 15 16 1013.4 - 0.0 - - - - - - -
21/06:00am 26.3 E 15 18 1012.9 - 0.0 - - - - - - -
21/05:30am 25.9 E 14 16 1012.4 - 0.0 - - - - - - -
21/05:00am 25.8 ENE 13 15 1012.4 - 0.0 - - - - - - -
21/04:30am 25.7 E 13 15 1012.3 - 0.0 - - - - - - -
21/04:00am 25.7 E 13 16 1012.2 - 0.0 - - - - - - -
21/03:30am 25.7 E 14 16 1012.3 - 0.0 - - - - - - -
21/03:00am 25.8 E 15 16 1012.2 - 0.0 - - - - - - -
21/02:30am 25.7 E 16 18 1012.3 - 0.0 - - - - - - -
21/02:00am 25.7 E 14 16 1012.6 - 0.0 - - - - - - -
21/01:30am 25.5 E 13 15 1012.8 - 0.0 - - - - - - -
21/01:00am 25.5 E 12 14 1012.9 - 0.0 - - - - - - -
21/12:30am 25.6 E 13 16 1013.3 - 0.0 - - - - - - -
21/12:00am 25.6 E 13 16 1013.7 - 0.0 - - - - - - -
 
Date/Time
EST
Temp

°C
Wind Pressure Rain
since 9am
mm
Weather Cloud Vis
km
Sea
Height
m
Swell
Dir
 
Speed
knots
Gust
knots
hPa Trend Height
m
Period
s
Dir
20/11:30pm 25.7 E 12 15 1014.1 - 0.0 - - - - - - -
20/11:00pm 25.8 E 13 15 1014.5 - 0.0 - - - - - - -
20/10:30pm 25.8 E 13 15 1014.7 - 0.0 - - - - - - -
20/10:00pm 25.8 E 11 12 1014.8 - 0.0 - - - - - - -
20/09:30pm 25.9 E 12 15 1014.8 - 0.0 - - - - - - -
20/09:00pm 25.9 E 11 13 1014.8 - 0.0 - - - - - - -

Other Formats:

Comma delimited format used in spreadsheet applications
http://www.bom.gov.au/fwo/IDQ60701/IDQ60701.94299.axf

JavaScript Object Notation format (JSON) in row-major order
http://www.bom.gov.au/fwo/IDQ60701/IDQ60701.94299.json